Location: Lourdes
(43.1000°N, 0.0500°W)
Time: 12:34:39
(UTC+00:00)

ERS-2 - Pass Details

Date: 30 November 2020
Orbit: 492 x 498 km, 98.6° (Epoch: 25 January)

Event Time Altitude Azimuth Distance (km) Brightness Sun altitude
Exits shadow 16:56:57 - 40° (NE) 2,121 4.7 -5.8°
Reaches altitude 10° 16:58:19 10° 54° (NE) 1,709 4.2 -6.0°
Maximum altitude 17:00:40 16° 94° (E) 1,361 3.8 -6.4°
Drops below altitude 10° 17:03:01 10° 134° (SE) 1,699 4.6 -6.8°
Sets 17:05:43 0° 156° (SSE) 2,575 5.7 -7.2°
